Time,TemperatureF,DewpointF,PressureIn,WindDirection,WindDirectionDegrees,WindSpeedMPH,WindSpeedGustMPH,Humidity,HourlyPrecipIn,Conditions,Clouds,dailyrainin,SolarRadiationWatts/m^2,SoftwareType,DateUTC
2013-05-16 00:02:00,60.2,48.8,29.83,SW,215,0.0,0.0,66,0.00,CLR,,0.00,0.0,WeatherDisplay:10.37,2013-05-16 05:02:00,
2013-05-16 00:07:00,60.1,48.7,29.83,SW,215,0.0,0.0,66,0.00,CLR,,0.00,0.0,WeatherDisplay:10.37,2013-05-16 05:07:00,
2013-05-16 00:12:00,59.9,48.5,29.83,SW,215,0.0,0.0,66,0.00,CLR,,0.00,0.0,WeatherDisplay:10.37,2013-05-16 05:12:00,
2013-05-16 00:17:00,59.8,48.4,29.83,SW,215,0.0,0.0,66,0.00,CLR,,0.00,0.0,WeatherDisplay:10.37,2013-05-16 05:17:00,
2013-05-16 00:22:00,59.5,48.1,29.83,SW,215,0.0,0.0,66,0.00,CLR,,0.00,0.0,WeatherDisplay:10.37,2013-05-16 05:22:00,
2013-05-16 00:27:00,59.2,47.8,29.83,SW,215,0.0,0.0,66,0.00,CLR,,0.00,0.0,WeatherDisplay:10.37,2013-05-16 05:27:00,
2013-05-16 00:32:00,58.9,47.6,29.84,SW,215,0.0,0.0,66,0.00,CLR,,0.00,0.0,WeatherDisplay:10.37,2013-05-16 05:32:00,
2013-05-16 00:37:00,58.7,47.0,29.84,SW,215,0.0,0.0,65,0.00,CLR,,0.00,0.0,WeatherDisplay:10.37,2013-05-16 05:37:00,
2013-05-16 00:42:00,58.6,46.9,29.84,SW,215,0.0,0.0,65,0.00,CLR,,0.00,0.0,WeatherDisplay:10.37,2013-05-16 05:42:00,
2013-05-16 00:47:00,58.6,46.5,29.84,SW,215,0.0,0.0,64,0.00,CLR,,0.00,0.0,WeatherDisplay:10.37,2013-05-16 05:47:00,
2013-05-16 00:52:00,58.6,46.5,29.84,SW,215,0.0,0.0,64,0.00,CLR,,0.00,0.0,WeatherDisplay:10.37,2013-05-16 05:52:00,
2013-05-16 00:57:00,58.7,47.4,29.84,SW,215,0.0,0.0,66,0.00,CLR,,0.00,0.0,WeatherDisplay:10.37,2013-05-16 05:57:00,
2013-05-16 01:02:00,58.7,48.9,29.84,SW,215,0.0,0.0,70,0.00,CLR,,0.00,0.0,WeatherDisplay:10.37,2013-05-16 06:02:00,
2013-05-16 01:07:00,58.7,48.9,29.84,SW,215,0.0,0.0,70,0.00,CLR,,0.00,0.0,WeatherDisplay:10.37,2013-05-16 06:07:00,
2013-05-16 01:12:00,58.4,48.7,29.84,SW,215,0.0,0.0,70,0.00,CLR,,0.00,0.0,WeatherDisplay:10.37,2013-05-16 06:12:00,
2013-05-16 01:17:00,58.1,48.4,29.84,SW,215,0.0,0.0,70,0.00,CLR,,0.00,0.0,WeatherDisplay:10.37,2013-05-16 06:17:00,
2013-05-16 01:22:00,57.8,48.1,29.84,SW,215,0.0,0.0,70,0.00,CLR,,0.00,0.0,WeatherDisplay:10.37,2013-05-16 06:22:00,
2013-05-16 01:27:00,57.5,47.4,29.84,SW,215,0.0,0.0,69,0.00,CLR,,0.00,0.0,WeatherDisplay:10.37,2013-05-16 06:27:00,
2013-05-16 01:32:00,57.2,47.1,29.84,SW,215,0.0,0.0,69,0.00,CLR,,0.00,0.0,WeatherDisplay:10.37,2013-05-16 06:32:00,
2013-05-16 01:37:00,56.9,46.8,29.84,SW,215,0.0,0.0,69,0.00,CLR,,0.00,0.0,WeatherDisplay:10.37,2013-05-16 06:37:00,
2013-05-16 01:42:00,57.0,48.4,29.84,SW,215,0.0,0.0,73,0.00,CLR,,0.00,0.0,WeatherDisplay:10.37,2013-05-16 06:42:00,
2013-05-16 01:47:00,57.0,48.8,29.84,SW,215,0.0,0.0,74,0.00,CLR,,0.00,0.0,WeatherDisplay:10.37,2013-05-16 06:47:00,
2013-05-16 01:52:00,57.2,49.3,29.84,SW,215,0.0,0.0,75,0.00,CLR,,0.00,0.0,WeatherDisplay:10.37,2013-05-16 06:52:00,
2013-05-16 01:57:00,57.5,50.0,29.84,SW,215,0.0,0.0,76,0.00,CLR,,0.00,0.0,WeatherDisplay:10.37,2013-05-16 06:57:00,
2013-05-16 02:02:00,57.5,48.9,29.84,SW,215,0.0,0.0,73,0.00,CLR,,0.00,0.0,WeatherDisplay:10.37,2013-05-16 07:02:00,
2013-05-16 02:07:00,57.6,47.9,29.84,SW,215,0.0,0.0,70,0.00,CLR,,0.00,0.0,WeatherDisplay:10.37,2013-05-16 07:07:00,
2013-05-16 02:12:00,57.8,48.5,29.84,SW,216,0.0,0.0,71,0.00,CLR,,0.00,0.0,WeatherDisplay:10.37,2013-05-16 07:12:00,
2013-05-16 02:17:00,57.8,48.8,29.84,SW,215,0.0,0.0,72,0.00,CLR,,0.00,0.0,WeatherDisplay:10.37,2013-05-16 07:17:00,
2013-05-16 02:22:00,57.6,49.0,29.84,SW,216,0.0,0.0,73,0.00,CLR,,0.00,0.0,WeatherDisplay:10.37,2013-05-16 07:22:00,
2013-05-16 02:27:00,57.3,48.7,29.84,SW,215,0.0,0.0,73,0.00,CLR,,0.00,0.0,WeatherDisplay:10.37,2013-05-16 07:27:00,
2013-05-16 02:32:00,57.0,47.7,29.84,SW,216,0.0,0.0,71,0.00,CLR,,0.00,0.0,WeatherDisplay:10.37,2013-05-16 07:32:00,
2013-05-16 02:37:00,57.2,48.3,29.84,SW,215,0.0,0.0,72,0.00,CLR,,0.00,0.0,WeatherDisplay:10.37,2013-05-16 07:37:00,
2013-05-16 02:42:00,57.3,49.1,29.84,SW,215,0.0,0.0,74,0.00,CLR,,0.00,0.0,WeatherDisplay:10.37,2013-05-16 07:42:00,
2013-05-16 02:47:00,57.3,49.4,29.84,SW,216,0.0,0.0,75,0.00,CLR,,0.00,0.0,WeatherDisplay:10.37,2013-05-16 07:47:00,
2013-05-16 02:52:00,57.2,49.0,29.84,SW,216,0.0,0.0,74,0.00,CLR,,0.00,0.0,WeatherDisplay:10.37,2013-05-16 07:52:00,
2013-05-16 02:57:00,57.0,49.2,29.84,SW,216,0.0,0.0,75,0.00,CLR,,0.00,0.0,WeatherDisplay:10.37,2013-05-16 07:57:00,
2013-05-16 03:02:00,56.9,49.4,29.84,SW,216,0.0,0.0,76,0.00,CLR,,0.00,0.0,WeatherDisplay:10.37,2013-05-16 08:02:00,
2013-05-16 03:07:00,56.9,48.7,29.84,SW,216,0.0,0.0,74,0.00,CLR,,0.00,0.0,WeatherDisplay:10.37,2013-05-16 08:07:00,
2013-05-16 03:12:00,56.9,48.3,29.84,SW,216,0.0,0.0,73,0.00,CLR,,0.00,0.0,WeatherDisplay:10.37,2013-05-16 08:12:00,
2013-05-16 03:17:00,56.9,48.3,29.84,SW,215,0.0,0.0,73,0.00,CLR,,0.00,0.0,WeatherDisplay:10.37,2013-05-16 08:17:00,
2013-05-16 03:22:00,56.7,48.1,29.84,SW,216,0.0,0.0,73,0.00,CLR,,0.00,0.0,WeatherDisplay:10.37,2013-05-16 08:22:00,
2013-05-16 03:27:00,56.5,48.3,29.84,SW,215,0.0,0.0,74,0.00,CLR,,0.00,0.0,WeatherDisplay:10.37,2013-05-16 08:27:00,
2013-05-16 03:32:00,56.2,48.0,29.84,SW,215,0.0,0.0,74,0.00,CLR,,0.00,0.0,WeatherDisplay:10.37,2013-05-16 08:32:00,
2013-05-16 03:37:00,55.9,47.7,29.84,SW,216,0.0,0.0,74,0.00,CLR,,0.00,0.0,WeatherDisplay:10.37,2013-05-16 08:37:00,
2013-05-16 03:42:00,55.9,48.4,29.84,SW,216,0.0,0.0,76,0.00,CLR,,0.00,0.0,WeatherDisplay:10.37,2013-05-16 08:42:00,
2013-05-16 03:47:00,55.9,48.8,29.84,SW,216,0.0,0.0,77,0.00,CLR,,0.00,0.0,WeatherDisplay:10.37,2013-05-16 08:47:00,
2013-05-16 03:52:00,55.9,49.1,29.84,SW,216,0.0,0.0,78,0.00,CLR,,0.00,0.0,WeatherDisplay:10.37,2013-05-16 08:52:00,
2013-05-16 03:57:00,55.7,48.9,29.84,SW,216,0.0,0.0,78,0.00,CLR,,0.00,0.0,WeatherDisplay:10.37,2013-05-16 08:57:00,
2013-05-16 04:02:00,55.4,48.3,29.84,SW,215,0.0,0.0,77,0.00,CLR,,0.00,0.0,WeatherDisplay:10.37,2013-05-16 09:02:00,
2013-05-16 04:07:00,55.1,48.0,29.84,SW,215,0.0,0.0,77,0.00,CLR,,0.00,0.0,WeatherDisplay:10.37,2013-05-16 09:07:00,
2013-05-16 04:12:00,54.8,47.7,29.84,SW,216,0.0,0.0,77,0.00,CLR,,0.00,0.0,WeatherDisplay:10.37,2013-05-16 09:12:00,
2013-05-16 04:17:00,54.5,47.4,29.84,SW,215,0.0,0.0,77,0.00,CLR,,0.00,0.0,WeatherDisplay:10.37,2013-05-16 09:17:00,
2013-05-16 04:22:00,54.4,47.3,29.84,SW,216,0.0,0.0,77,0.00,CLR,,0.00,0.0,WeatherDisplay:10.37,2013-05-16 09:22:00,
2013-05-16 04:27:00,54.2,47.1,29.84,SW,215,0.0,0.0,77,0.00,CLR,,0.00,0.0,WeatherDisplay:10.37,2013-05-16 09:27:00,
2013-05-16 04:32:00,54.1,47.0,29.84,SW,216,0.0,0.0,77,0.00,CLR,,0.00,0.0,WeatherDisplay:10.37,2013-05-16 09:32:00,
2013-05-16 04:37:00,53.9,46.9,29.84,SW,215,0.0,0.0,77,0.00,CLR,,0.00,0.0,WeatherDisplay:10.37,2013-05-16 09:37:00,
2013-05-16 04:42:00,53.8,47.1,29.84,SW,215,0.0,0.0,78,0.00,CLR,,0.00,0.0,WeatherDisplay:10.37,2013-05-16 09:42:00,
2013-05-16 04:47:00,53.6,47.2,29.84,SW,215,0.0,0.0,79,0.00,CLR,,0.00,0.0,WeatherDisplay:10.37,2013-05-16 09:47:00,
2013-05-16 04:52:00,53.6,47.6,29.84,SW,215,0.0,0.0,80,0.00,CLR,,0.00,0.0,WeatherDisplay:10.37,2013-05-16 09:52:00,
2013-05-16 04:57:00,53.5,47.5,29.84,SW,216,0.0,0.0,80,0.00,CLR,,0.00,0.0,WeatherDisplay:10.37,2013-05-16 09:57:00,
2013-05-16 05:02:00,53.3,47.3,29.84,SW,215,0.0,0.0,80,0.00,CLR,,0.00,0.0,WeatherDisplay:10.37,2013-05-16 10:02:00,
2013-05-16 05:07:00,53.1,47.1,29.84,SW,215,0.0,0.0,80,0.00,CLR,,0.00,0.0,WeatherDisplay:10.37,2013-05-16 10:07:00,
2013-05-16 05:12:00,52.9,47.2,29.84,SW,215,0.0,0.0,81,0.00,CLR,,0.00,0.0,WeatherDisplay:10.37,2013-05-16 10:12:00,
2013-05-16 05:17:00,52.8,47.1,29.85,SW,217,3.8,4.8,81,0.00,CLR,,0.00,0.0,WeatherDisplay:10.37,2013-05-16 10:17:00,
2013-05-16 05:22:00,52.2,46.5,29.85,SW,217,0.0,0.0,81,0.00,CLR,,0.00,0.0,WeatherDisplay:10.37,2013-05-16 10:22:00,
2013-05-16 05:27:00,51.7,46.4,29.85,SW,217,0.0,0.0,82,0.00,CLR,,0.00,0.0,WeatherDisplay:10.37,2013-05-16 10:27:00,
2013-05-16 05:32:00,51.4,46.4,29.86,SW,217,0.0,0.0,83,0.00,CLR,,0.00,0.0,WeatherDisplay:10.37,2013-05-16 10:32:00,
2013-05-16 05:37:00,51.3,46.3,29.86,SW,217,0.0,0.0,83,0.00,CLR,,0.00,5.0,WeatherDisplay:10.37,2013-05-16 10:37:00,
2013-05-16 05:42:00,51.1,46.1,29.86,SW,217,0.0,0.0,83,0.00,CLR,,0.00,7.0,WeatherDisplay:10.37,2013-05-16 10:42:00,
2013-05-16 05:47:00,51.1,46.4,29.87,SW,217,0.0,0.0,84,0.00,CLR,,0.00,11.0,WeatherDisplay:10.37,2013-05-16 10:47:00,
2013-05-16 05:52:00,51.0,46.3,29.87,SW,217,0.0,0.0,84,0.00,CLR,,0.00,14.0,WeatherDisplay:10.37,2013-05-16 10:52:00,
2013-05-16 05:57:00,51.0,46.3,29.87,SW,217,0.0,0.0,84,0.00,CLR,,0.00,16.0,WeatherDisplay:10.37,2013-05-16 10:57:00,
2013-05-16 06:02:00,51.1,46.4,29.87,SW,217,0.0,0.0,84,0.00,CLR,,0.00,19.0,WeatherDisplay:10.37,2013-05-16 11:02:00,
2013-05-16 06:07:00,51.3,46.9,29.87,SW,217,0.0,0.0,85,0.00,CLR,,0.00,23.0,WeatherDisplay:10.37,2013-05-16 11:07:00,
2013-05-16 06:12:00,51.4,46.7,29.87,SW,217,0.0,0.0,84,0.00,CLR,,0.00,25.0,WeatherDisplay:10.37,2013-05-16 11:12:00,
2013-05-16 06:17:00,52.0,47.3,29.87,SW,217,0.0,0.0,84,0.00,CLR,,0.00,26.0,WeatherDisplay:10.37,2013-05-16 11:17:00,
2013-05-16 06:22:00,52.3,47.9,29.87,SW,217,0.0,0.0,85,0.00,CLR,,0.00,32.0,WeatherDisplay:10.37,2013-05-16 11:22:00,
2013-05-16 06:27:00,52.5,48.1,29.87,SW,217,0.0,0.0,85,0.00,CLR,,0.00,33.0,WeatherDisplay:10.37,2013-05-16 11:27:00,
2013-05-16 06:32:00,52.5,48.1,29.88,SW,217,0.0,0.0,85,0.00,CLR,,0.00,39.0,WeatherDisplay:10.37,2013-05-16 11:32:00,
2013-05-16 06:37:00,52.8,48.4,29.88,SW,217,0.0,0.0,85,0.00,CLR,,0.00,54.0,WeatherDisplay:10.37,2013-05-16 11:37:00,
2013-05-16 06:42:00,53.1,48.4,29.88,SW,217,0.0,0.0,84,0.00,CLR,,0.00,84.0,WeatherDisplay:10.37,2013-05-16 11:42:00,
2013-05-16 06:47:00,53.5,48.4,29.89,SW,217,0.0,1.0,83,0.00,CLR,,0.00,158.0,WeatherDisplay:10.37,2013-05-16 11:47:00,
2013-05-16 06:52:00,54.1,48.1,29.89,SSW,206,0.0,0.0,80,0.00,CLR,,0.00,171.0,WeatherDisplay:10.37,2013-05-16 11:52:00,
2013-05-16 06:57:00,54.7,48.0,29.89,SSW,205,0.0,1.2,78,0.00,CLR,,0.00,186.0,WeatherDisplay:10.37,2013-05-16 11:57:00,
2013-05-16 07:02:00,55.3,48.2,29.89,SSW,205,0.0,0.0,77,0.00,CLR,,0.00,200.0,WeatherDisplay:10.37,2013-05-16 12:02:00,
2013-05-16 07:07:00,55.4,48.0,29.89,SSW,205,0.0,0.0,76,0.00,CLR,,0.00,213.0,WeatherDisplay:10.37,2013-05-16 12:07:00,
2013-05-16 07:12:00,55.7,48.2,29.89,WNW,302,0.0,1.2,76,0.00,CLR,,0.00,230.0,WeatherDisplay:10.37,2013-05-16 12:12:00,
2013-05-16 07:17:00,55.9,48.1,29.89,WNW,302,0.0,0.0,75,0.00,CLR,,0.00,248.0,WeatherDisplay:10.37,2013-05-16 12:17:00,
2013-05-16 07:22:00,56.2,48.4,29.89,WNW,302,0.0,0.0,75,0.00,CLR,,0.00,264.0,WeatherDisplay:10.37,2013-05-16 12:22:00,
2013-05-16 07:27:00,56.6,48.4,29.89,WNW,302,0.0,0.0,74,0.00,CLR,,0.00,274.0,WeatherDisplay:10.37,2013-05-16 12:27:00,
2013-05-16 07:32:00,57.0,48.4,29.90,WNW,302,0.0,0.0,73,0.00,CLR,,0.00,294.0,WeatherDisplay:10.37,2013-05-16 12:32:00,
2013-05-16 07:37:00,57.3,48.3,29.90,WNW,302,0.0,1.0,72,0.00,CLR,,0.00,309.0,WeatherDisplay:10.37,2013-05-16 12:37:00,
2013-05-16 07:42:00,57.8,48.4,29.90,WNW,302,0.0,0.0,71,0.00,CLR,,0.00,323.0,WeatherDisplay:10.37,2013-05-16 12:42:00,
2013-05-16 07:47:00,58.3,48.5,29.91,WNW,302,0.0,1.0,70,0.00,CLR,,0.00,339.0,WeatherDisplay:10.37,2013-05-16 12:47:00,
2013-05-16 07:52:00,58.7,48.5,29.91,WNW,302,0.0,1.0,69,0.00,CLR,,0.00,353.0,WeatherDisplay:10.37,2013-05-16 12:52:00,
2013-05-16 07:57:00,59.3,48.7,29.91,WNW,302,0.0,1.0,68,0.00,CLR,,0.00,369.0,WeatherDisplay:10.37,2013-05-16 12:57:00,
2013-05-16 08:02:00,59.6,48.6,29.91,WNW,302,0.0,0.0,67,0.00,CLR,,0.00,383.0,WeatherDisplay:10.37,2013-05-16 13:02:00,
2013-05-16 08:07:00,60.1,49.1,29.91,WNW,302,0.0,1.2,67,0.00,CLR,,0.00,399.0,WeatherDisplay:10.37,2013-05-16 13:07:00,
2013-05-16 08:12:00,60.7,49.7,29.91,WNW,302,0.2,1.2,67,0.00,CLR,,0.00,415.0,WeatherDisplay:10.37,2013-05-16 13:12:00,
2013-05-16 08:17:00,61.2,49.7,29.91,WNW,302,0.0,0.0,66,0.00,CLR,,0.00,427.0,WeatherDisplay:10.37,2013-05-16 13:17:00,
2013-05-16 08:22:00,61.8,49.9,29.91,WNW,302,0.0,1.0,65,0.00,CLR,,0.00,446.0,WeatherDisplay:10.37,2013-05-16 13:22:00,
2013-05-16 08:27:00,62.3,50.0,29.91,WNW,302,0.0,0.0,64,0.00,CLR,,0.00,461.0,WeatherDisplay:10.37,2013-05-16 13:27:00,
2013-05-16 08:32:00,62.8,50.0,29.91,WNW,302,0.0,1.0,63,0.00,CLR,,0.00,478.0,WeatherDisplay:10.37,2013-05-16 13:32:00,
2013-05-16 08:37:00,63.4,49.3,29.91,WNW,302,0.0,0.0,60,0.00,CLR,,0.00,490.0,WeatherDisplay:10.37,2013-05-16 13:37:00,
2013-05-16 08:42:00,63.9,50.2,29.91,WNW,302,0.0,0.0,61,0.00,CLR,,0.00,510.0,WeatherDisplay:10.37,2013-05-16 13:42:00,
2013-05-16 08:47:00,64.3,49.2,29.91,WNW,302,0.0,0.0,58,0.00,CLR,,0.00,520.0,WeatherDisplay:10.37,2013-05-16 13:47:00,
2013-05-16 08:52:00,65.0,49.4,29.91,WNW,302,0.0,1.0,57,0.00,CLR,,0.00,536.0,WeatherDisplay:10.37,2013-05-16 13:52:00,
2013-05-16 08:57:00,65.5,48.9,29.91,WNW,302,0.0,0.0,55,0.00,CLR,,0.00,552.0,WeatherDisplay:10.37,2013-05-16 13:57:00,
2013-05-16 09:02:00,66.1,49.0,29.91,WNW,302,0.0,0.0,54,0.00,CLR,,0.00,566.0,WeatherDisplay:10.37,2013-05-16 14:02:00,
2013-05-16 09:07:00,66.9,49.2,29.91,WNW,302,0.0,0.0,53,0.00,CLR,,0.00,578.0,WeatherDisplay:10.37,2013-05-16 14:07:00,
2013-05-16 09:12:00,67.4,49.2,29.91,WNW,302,0.0,1.2,52,0.00,CLR,,0.00,592.0,WeatherDisplay:10.37,2013-05-16 14:12:00,
2013-05-16 09:17:00,68.3,50.0,29.91,WNW,302,0.0,0.0,52,0.00,CLR,,0.00,605.0,WeatherDisplay:10.37,2013-05-16 14:17:00,
2013-05-16 09:22:00,68.9,48.9,29.91,WNW,302,0.0,0.0,49,0.00,CLR,,0.00,621.0,WeatherDisplay:10.37,2013-05-16 14:22:00,
2013-05-16 09:27:00,69.1,49.1,29.91,WNW,292,0.0,0.0,49,0.00,CLR,,0.00,635.0,WeatherDisplay:10.37,2013-05-16 14:27:00,
2013-05-16 09:32:00,69.1,48.6,29.91,WNW,292,0.0,0.0,48,0.00,CLR,,0.00,649.0,WeatherDisplay:10.37,2013-05-16 14:32:00,
2013-05-16 09:37:00,69.4,48.3,29.91,WNW,292,0.0,1.2,47,0.00,CLR,,0.00,661.0,WeatherDisplay:10.37,2013-05-16 14:37:00,
2013-05-16 09:42:00,69.8,48.7,29.91,WSW,242,0.0,1.2,47,0.00,CLR,,0.00,675.0,WeatherDisplay:10.37,2013-05-16 14:42:00,
2013-05-16 09:47:00,70.3,48.5,29.91,WSW,242,0.0,0.0,46,0.00,CLR,,0.00,691.0,WeatherDisplay:10.37,2013-05-16 14:47:00,
2013-05-16 09:52:00,70.9,50.2,29.91,WSW,242,0.0,1.2,48,0.00,CLR,,0.00,698.0,WeatherDisplay:10.37,2013-05-16 14:52:00,
2013-05-16 09:57:00,72.1,48.4,29.91,WSW,242,0.0,1.2,43,0.00,CLR,,0.00,714.0,WeatherDisplay:10.37,2013-05-16 14:57:00,
2013-05-16 10:02:00,72.8,48.4,29.90,WSW,243,0.1,1.2,42,0.00,CLR,,0.00,726.0,WeatherDisplay:10.37,2013-05-16 15:02:00,
2013-05-16 10:07:00,73.5,49.0,29.90,WSW,243,0.0,0.0,42,0.00,CLR,,0.00,733.0,WeatherDisplay:10.37,2013-05-16 15:07:00,
2013-05-16 10:12:00,74.0,48.8,29.90,WSW,243,0.1,1.2,41,0.00,CLR,,0.00,745.0,WeatherDisplay:10.37,2013-05-16 15:12:00,
2013-05-16 10:17:00,73.9,50.0,29.90,WSW,243,0.0,0.0,43,0.00,CLR,,0.00,758.0,WeatherDisplay:10.37,2013-05-16 15:17:00,
2013-05-16 10:22:00,73.5,49.0,29.90,WSW,242,0.0,0.0,42,0.00,CLR,,0.00,770.0,WeatherDisplay:10.37,2013-05-16 15:22:00,
2013-05-16 10:27:00,73.5,49.0,29.90,WSW,245,0.1,1.2,42,0.00,CLR,,0.00,780.0,WeatherDisplay:10.37,2013-05-16 15:27:00,
2013-05-16 10:32:00,74.0,50.1,29.90,WSW,245,0.0,0.0,43,0.00,CLR,,0.00,793.0,WeatherDisplay:10.37,2013-05-16 15:32:00,
2013-05-16 10:37:00,76.1,52.6,29.90,WSW,245,0.0,1.2,44,0.00,CLR,,0.00,766.0,WeatherDisplay:10.37,2013-05-16 15:37:00,
2013-05-16 10:42:00,75.6,49.6,29.90,WSW,245,0.0,1.0,40,0.00,CLR,,0.00,812.0,WeatherDisplay:10.37,2013-05-16 15:42:00,
2013-05-16 10:47:00,75.6,50.9,29.90,WSW,250,0.6,3.6,42,0.00,CLR,,0.00,819.0,WeatherDisplay:10.37,2013-05-16 15:47:00,
2013-05-16 10:52:00,76.0,49.2,29.90,NW,319,0.2,1.2,39,0.00,CLR,,0.00,828.0,WeatherDisplay:10.37,2013-05-16 15:52:00,
2013-05-16 10:57:00,76.8,50.6,29.90,North,360,0.1,1.2,40,0.00,CLR,,0.00,840.0,WeatherDisplay:10.37,2013-05-16 15:57:00,
2013-05-16 11:02:00,77.2,49.6,29.90,North,355,0.1,1.2,38,0.00,CLR,,0.00,847.0,WeatherDisplay:10.37,2013-05-16 16:02:00,
2013-05-16 11:07:00,77.2,48.2,29.90,NNW,344,1.0,3.6,36,0.00,CLR,,0.00,856.0,WeatherDisplay:10.37,2013-05-16 16:07:00,
2013-05-16 11:12:00,76.5,49.0,29.90,WNW,294,0.0,1.2,38,0.00,CLR,,0.00,868.0,WeatherDisplay:10.37,2013-05-16 16:12:00,
2013-05-16 11:17:00,77.0,48.7,29.90,WNW,300,0.0,1.2,37,0.00,CLR,,0.00,911.0,WeatherDisplay:10.37,2013-05-16 16:17:00,
2013-05-16 11:22:00,77.6,48.5,29.90,WNW,300,0.0,0.0,36,0.00,CLR,,0.00,821.0,WeatherDisplay:10.37,2013-05-16 16:22:00,
2013-05-16 11:27:00,76.8,48.6,29.90,WNW,288,0.0,3.5,37,0.00,CLR,,0.00,814.0,WeatherDisplay:10.37,2013-05-16 16:27:00,
2013-05-16 11:32:00,76.9,47.9,29.90,WNW,288,0.0,2.0,36,0.00,CLR,,0.00,940.0,WeatherDisplay:10.37,2013-05-16 16:32:00,
2013-05-16 11:37:00,78.6,48.7,29.90,NW,317,0.4,1.2,35,0.00,CLR,,0.00,972.0,WeatherDisplay:10.37,2013-05-16 16:37:00,
2013-05-16 11:42:00,77.9,49.5,29.90,NW,317,0.0,1.2,37,0.00,CLR,,0.00,436.0,WeatherDisplay:10.37,2013-05-16 16:42:00,
2013-05-16 11:47:00,77.4,48.3,29.89,NW,312,0.0,0.0,36,0.00,CLR,,0.00,617.0,WeatherDisplay:10.37,2013-05-16 16:47:00,
2013-05-16 11:52:00,78.3,47.6,29.89,NW,312,0.0,1.0,34,0.00,CLR,,0.00,912.0,WeatherDisplay:10.37,2013-05-16 16:52:00,
2013-05-16 11:57:00,78.1,48.2,29.89,NNW,331,0.4,3.5,35,0.00,CLR,,0.00,334.0,WeatherDisplay:10.37,2013-05-16 16:57:00,
2013-05-16 12:02:00,77.7,51.5,29.89,NNW,331,0.0,0.0,40,0.00,CLR,,0.00,923.0,WeatherDisplay:10.37,2013-05-16 17:02:00,
2013-05-16 12:07:00,78.6,51.6,29.89,WSW,250,0.0,1.2,39,0.00,CLR,,0.00,912.0,WeatherDisplay:10.37,2013-05-16 17:07:00,
2013-05-16 12:12:00,77.7,48.6,29.89,SSW,206,0.0,0.0,36,0.00,CLR,,0.00,914.0,WeatherDisplay:10.37,2013-05-16 17:12:00,
2013-05-16 12:17:00,77.6,48.5,29.89,SSW,207,0.1,1.2,36,0.00,CLR,,0.00,916.0,WeatherDisplay:10.37,2013-05-16 17:17:00,
2013-05-16 12:22:00,78.1,49.7,29.89,SSW,207,0.0,1.0,37,0.00,CLR,,0.00,816.0,WeatherDisplay:10.37,2013-05-16 17:22:00,
2013-05-16 12:27:00,79.9,49.0,29.89,NE,38,0.1,1.2,34,0.00,CLR,,0.00,935.0,WeatherDisplay:10.37,2013-05-16 17:27:00,
2013-05-16 12:32:00,80.5,49.5,29.88,NE,46,0.0,1.0,34,0.00,CLR,,0.00,921.0,WeatherDisplay:10.37,2013-05-16 17:32:00,
2013-05-16 12:37:00,79.6,48.8,29.88,WNW,298,0.0,1.2,34,0.00,CLR,,0.00,930.0,WeatherDisplay:10.37,2013-05-16 17:37:00,
2013-05-16 12:42:00,79.4,49.4,29.88,West,273,0.0,2.0,35,0.00,CLR,,0.00,928.0,WeatherDisplay:10.37,2013-05-16 17:42:00,
2013-05-16 12:47:00,80.7,51.3,29.87,NW,314,1.7,4.8,36,0.00,CLR,,0.00,933.0,WeatherDisplay:10.37,2013-05-16 17:47:00,
2013-05-16 12:52:00,80.3,47.7,29.87,North,360,0.1,3.5,32,0.00,CLR,,0.00,930.0,WeatherDisplay:10.37,2013-05-16 17:52:00,
2013-05-16 12:57:00,80.1,48.4,29.87,NNE,14,0.0,5.0,33,0.00,CLR,,0.00,928.0,WeatherDisplay:10.37,2013-05-16 17:57:00,
2013-05-16 13:02:00,81.4,49.5,29.87,NE,37,0.0,1.2,33,0.00,CLR,,0.00,923.0,WeatherDisplay:10.37,2013-05-16 18:02:00,
2013-05-16 13:07:00,81.2,49.4,29.87,NW,305,4.5,6.0,33,0.00,CLR,,0.00,937.0,WeatherDisplay:10.37,2013-05-16 18:07:00,
2013-05-16 13:12:00,81.6,49.7,29.87,NW,323,3.0,4.8,33,0.00,CLR,,0.00,933.0,WeatherDisplay:10.37,2013-05-16 18:12:00,
2013-05-16 13:17:00,80.9,49.1,29.87,NNE,30,0.0,1.2,33,0.00,CLR,,0.00,949.0,WeatherDisplay:10.37,2013-05-16 18:17:00,
2013-05-16 13:22:00,81.0,48.4,29.87,North,8,0.0,4.0,32,0.00,CLR,,0.00,977.0,WeatherDisplay:10.37,2013-05-16 18:22:00,
2013-05-16 13:27:00,81.1,48.4,29.87,NE,39,0.0,0.0,32,0.00,CLR,,0.00,991.0,WeatherDisplay:10.37,2013-05-16 18:27:00,
2013-05-16 13:32:00,82.1,48.5,29.87,NE,38,0.0,1.0,31,0.00,CLR,,0.00,1005.0,WeatherDisplay:10.37,2013-05-16 18:32:00,
2013-05-16 13:37:00,81.7,49.8,29.87,NNE,32,0.0,1.0,33,0.00,CLR,,0.00,1053.0,WeatherDisplay:10.37,2013-05-16 18:37:00,
2013-05-16 13:42:00,82.0,49.3,29.87,NNE,14,0.0,5.0,32,0.00,CLR,,0.00,246.0,WeatherDisplay:10.37,2013-05-16 18:42:00,
2013-05-16 13:47:00,81.8,49.9,29.87,North,351,0.0,4.0,33,0.00,CLR,,0.00,332.0,WeatherDisplay:10.37,2013-05-16 18:47:00,
2013-05-16 13:52:00,81.9,49.1,29.87,SW,219,0.0,1.0,32,0.00,CLR,,0.00,297.0,WeatherDisplay:10.37,2013-05-16 18:52:00,
2013-05-16 13:57:00,81.3,47.8,29.87,SW,219,1.0,5.0,31,0.00,CLR,,0.00,487.0,WeatherDisplay:10.37,2013-05-16 18:57:00,
2013-05-16 14:02:00,81.2,47.7,29.86,SSE,161,0.0,1.2,31,0.00,CLR,,0.00,983.0,WeatherDisplay:10.37,2013-05-16 19:02:00,
2013-05-16 14:07:00,82.2,47.7,29.86,SE,142,0.0,1.0,30,0.00,CLR,,0.00,1013.0,WeatherDisplay:10.37,2013-05-16 19:07:00,
2013-05-16 14:12:00,82.8,48.2,29.86,West,273,2.5,6.0,30,0.00,CLR,,0.00,380.0,WeatherDisplay:10.37,2013-05-16 19:12:00,
2013-05-16 14:17:00,81.6,49.7,29.86,West,271,0.9,2.4,33,0.00,CLR,,0.00,309.0,WeatherDisplay:10.37,2013-05-16 19:17:00,
2013-05-16 14:22:00,81.6,49.7,29.86,West,278,0.6,4.8,33,0.00,CLR,,0.00,1032.0,WeatherDisplay:10.37,2013-05-16 19:22:00,
2013-05-16 14:27:00,82.4,49.6,29.86,NNW,329,1.1,4.8,32,0.00,CLR,,0.00,998.0,WeatherDisplay:10.37,2013-05-16 19:27:00,
2013-05-16 14:32:00,82.3,47.7,29.86,NW,314,0.0,2.0,30,0.00,CLR,,0.00,290.0,WeatherDisplay:10.37,2013-05-16 19:32:00,
2013-05-16 14:37:00,82.4,50.4,29.86,WNW,300,2.0,7.0,33,0.00,CLR,,0.00,267.0,WeatherDisplay:10.37,2013-05-16 19:37:00,
2013-05-16 14:42:00,81.8,49.1,29.86,SW,219,0.0,5.0,32,0.00,CLR,,0.00,206.0,WeatherDisplay:10.37,2013-05-16 19:42:00,
2013-05-16 14:47:00,81.5,48.0,29.86,West,263,5.0,5.0,31,0.00,CLR,,0.00,195.0,WeatherDisplay:10.37,2013-05-16 19:47:00,
2013-05-16 14:52:00,80.9,48.3,29.86,NNW,334,0.0,5.0,32,0.00,CLR,,0.00,246.0,WeatherDisplay:10.37,2013-05-16 19:52:00,
2013-05-16 14:57:00,81.8,49.9,29.86,NNW,346,0.0,0.0,33,0.00,CLR,,0.00,977.0,WeatherDisplay:10.37,2013-05-16 19:57:00,
2013-05-16 15:02:00,82.8,47.3,29.85,East,89,2.2,4.8,29,0.00,CLR,,0.00,981.0,WeatherDisplay:10.37,2013-05-16 20:02:00,
2013-05-16 15:07:00,83.4,46.9,29.85,East,99,0.0,1.2,28,0.00,CLR,,0.00,935.0,WeatherDisplay:10.37,2013-05-16 20:07:00,
2013-05-16 15:12:00,83.4,48.7,29.85,SSW,193,0.2,1.2,30,0.00,CLR,,0.00,918.0,WeatherDisplay:10.37,2013-05-16 20:12:00,
2013-05-16 15:17:00,83.0,46.5,29.85,South,182,0.0,0.0,28,0.00,CLR,,0.00,867.0,WeatherDisplay:10.37,2013-05-16 20:17:00,
2013-05-16 15:22:00,83.6,46.0,29.85,South,184,0.0,1.0,27,0.00,CLR,,0.00,269.0,WeatherDisplay:10.37,2013-05-16 20:22:00,
2013-05-16 15:27:00,83.2,46.7,29.85,WNW,283,0.0,1.2,28,0.00,CLR,,0.00,842.0,WeatherDisplay:10.37,2013-05-16 20:27:00,
2013-05-16 15:32:00,82.9,48.3,29.85,WSW,247,2.0,5.0,30,0.00,CLR,,0.00,888.0,WeatherDisplay:10.37,2013-05-16 20:32:00,
2013-05-16 15:37:00,83.2,45.7,29.85,SW,233,0.0,1.0,27,0.00,CLR,,0.00,283.0,WeatherDisplay:10.37,2013-05-16 20:37:00,
2013-05-16 15:42:00,82.9,46.4,29.85,SSW,206,1.0,5.0,28,0.00,CLR,,0.00,237.0,WeatherDisplay:10.37,2013-05-16 20:42:00,
2013-05-16 15:47:00,82.4,46.9,29.85,SSW,194,0.1,1.2,29,0.00,CLR,,0.00,243.0,WeatherDisplay:10.37,2013-05-16 20:47:00,
2013-05-16 15:52:00,83.4,47.8,29.85,SSW,194,0.0,1.0,29,0.00,CLR,,0.00,817.0,WeatherDisplay:10.37,2013-05-16 20:52:00,
2013-05-16 15:57:00,83.9,47.3,29.85,ENE,76,1.0,4.0,28,0.00,CLR,,0.00,830.0,WeatherDisplay:10.37,2013-05-16 20:57:00,
2013-05-16 16:02:00,84.9,46.2,29.85,NNE,13,0.8,2.4,26,0.00,CLR,,0.00,807.0,WeatherDisplay:10.37,2013-05-16 21:02:00,
2013-05-16 16:07:00,85.1,49.3,29.85,East,101,0.1,1.2,29,0.00,CLR,,0.00,788.0,WeatherDisplay:10.37,2013-05-16 21:07:00,
2013-05-16 16:12:00,84.9,47.2,29.85,NW,315,0.0,0.0,27,0.00,CLR,,0.00,756.0,WeatherDisplay:10.37,2013-05-16 21:12:00,
2013-05-16 16:17:00,84.7,46.0,29.85,NW,315,0.0,0.0,26,0.00,CLR,,0.00,517.0,WeatherDisplay:10.37,2013-05-16 21:17:00,
2013-05-16 16:22:00,84.7,47.0,29.85,NNW,329,0.0,1.0,27,0.00,CLR,,0.00,751.0,WeatherDisplay:10.37,2013-05-16 21:22:00,
2013-05-16 16:27:00,84.5,46.8,29.85,NNW,347,0.3,1.2,27,0.00,CLR,,0.00,731.0,WeatherDisplay:10.37,2013-05-16 21:27:00,
2013-05-16 16:32:00,84.5,46.8,29.85,NNW,333,0.1,1.2,27,0.00,CLR,,0.00,712.0,WeatherDisplay:10.37,2013-05-16 21:32:00,
2013-05-16 16:37:00,84.7,47.0,29.85,East,96,0.0,0.0,27,0.00,CLR,,0.00,200.0,WeatherDisplay:10.37,2013-05-16 21:37:00,
2013-05-16 16:42:00,83.8,46.2,29.85,ESE,104,0.0,2.3,27,0.00,CLR,,0.00,207.0,WeatherDisplay:10.37,2013-05-16 21:42:00,
2013-05-16 16:47:00,83.2,46.7,29.85,East,86,0.1,1.2,28,0.00,CLR,,0.00,160.0,WeatherDisplay:10.37,2013-05-16 21:47:00,
2013-05-16 16:52:00,82.6,47.1,29.85,East,86,0.0,1.2,29,0.00,CLR,,0.00,153.0,WeatherDisplay:10.37,2013-05-16 21:52:00,
2013-05-16 16:57:00,82.2,46.8,29.85,East,86,0.0,1.2,29,0.00,CLR,,0.00,171.0,WeatherDisplay:10.37,2013-05-16 21:57:00,
2013-05-16 17:02:00,82.0,46.6,29.85,East,86,0.0,0.0,29,0.00,CLR,,0.00,181.0,WeatherDisplay:10.37,2013-05-16 22:02:00,
2013-05-16 17:07:00,81.8,46.4,29.85,East,86,0.0,0.0,29,0.00,CLR,,0.00,478.0,WeatherDisplay:10.37,2013-05-16 22:07:00,
2013-05-16 17:12:00,82.2,45.8,29.85,East,86,0.0,1.2,28,0.00,CLR,,0.00,557.0,WeatherDisplay:10.37,2013-05-16 22:12:00,
2013-05-16 17:17:00,82.8,46.4,29.85,East,87,0.0,0.0,28,0.00,CLR,,0.00,276.0,WeatherDisplay:10.37,2013-05-16 22:17:00,
2013-05-16 17:22:00,83.0,46.5,29.85,ENE,71,0.1,1.2,28,0.00,CLR,,0.00,236.0,WeatherDisplay:10.37,2013-05-16 22:22:00,
2013-05-16 17:27:00,82.8,46.4,29.85,ENE,71,0.0,1.2,28,0.00,CLR,,0.00,392.0,WeatherDisplay:10.37,2013-05-16 22:27:00,
2013-05-16 17:32:00,82.6,47.1,29.85,East,90,0.0,0.0,29,0.00,CLR,,0.00,381.0,WeatherDisplay:10.37,2013-05-16 22:32:00,
2013-05-16 17:37:00,82.6,47.1,29.85,East,90,0.0,0.0,29,0.00,CLR,,0.00,341.0,WeatherDisplay:10.37,2013-05-16 22:37:00,
2013-05-16 17:42:00,82.8,46.4,29.85,East,90,0.0,0.0,28,0.00,CLR,,0.00,244.0,WeatherDisplay:10.37,2013-05-16 22:42:00,
2013-05-16 17:47:00,82.6,46.2,29.85,East,90,0.0,1.2,28,0.00,CLR,,0.00,195.0,WeatherDisplay:10.37,2013-05-16 22:47:00,
2013-05-16 17:52:00,82.4,46.0,29.85,East,90,0.0,0.0,28,0.00,CLR,,0.00,237.0,WeatherDisplay:10.37,2013-05-16 22:52:00,
2013-05-16 17:57:00,82.2,45.8,29.85,East,90,0.0,1.2,28,0.00,CLR,,0.00,287.0,WeatherDisplay:10.37,2013-05-16 22:57:00,
2013-05-16 18:02:00,82.6,48.0,29.85,East,90,0.0,0.0,30,0.00,CLR,,0.00,230.0,WeatherDisplay:10.37,2013-05-16 23:02:00,
2013-05-16 18:07:00,83.0,48.4,29.85,East,90,0.0,0.0,30,0.00,CLR,,0.00,262.0,WeatherDisplay:10.37,2013-05-16 23:07:00,
2013-05-16 18:12:00,83.2,47.6,29.85,East,90,0.0,0.0,29,0.00,CLR,,0.00,243.0,WeatherDisplay:10.37,2013-05-16 23:12:00,
2013-05-16 18:17:00,83.6,48.9,29.85,East,90,0.0,1.2,30,0.00,CLR,,0.00,237.0,WeatherDisplay:10.37,2013-05-16 23:17:00,
2013-05-16 18:22:00,83.6,47.0,29.85,East,90,0.0,1.2,28,0.00,CLR,,0.00,220.0,WeatherDisplay:10.37,2013-05-16 23:22:00,
2013-05-16 18:27:00,81.2,51.7,29.85,ESE,117,7.7,16.1,36,0.00,CLR,,0.00,167.0,WeatherDisplay:10.37,2013-05-16 23:27:00,
2013-05-16 18:32:00,78.9,52.6,29.85,ESE,107,9.0,18.0,40,0.00,CLR,,0.00,132.0,WeatherDisplay:10.37,2013-05-16 23:32:00,
2013-05-16 18:37:00,77.7,52.8,29.85,ENE,66,10.8,16.8,42,0.00,CLR,,0.00,97.0,WeatherDisplay:10.37,2013-05-16 23:37:00,
2013-05-16 18:42:00,77.1,52.9,29.85,SE,128,7.0,16.0,43,0.00,CLR,,0.00,98.0,WeatherDisplay:10.37,2013-05-16 23:42:00,
2013-05-16 18:47:00,76.5,52.3,29.86,ESE,105,5.6,15.0,43,0.00,CLR,,0.00,95.0,WeatherDisplay:10.37,2013-05-16 23:47:00,
2013-05-16 18:52:00,76.1,52.0,29.86,SE,133,10.0,16.0,43,0.00,CLR,,0.00,86.0,WeatherDisplay:10.37,2013-05-16 23:52:00,
2013-05-16 18:57:00,75.8,52.3,29.86,ESE,104,6.0,10.8,44,0.00,CLR,,0.00,74.0,WeatherDisplay:10.37,2013-05-16 23:57:00,
2013-05-16 19:02:00,75.6,52.1,29.86,SE,134,9.0,16.1,44,0.00,CLR,,0.00,67.0,WeatherDisplay:10.37,2013-05-17 00:02:00,
2013-05-16 19:07:00,75.3,51.9,29.86,ESE,117,11.2,16.1,44,0.00,CLR,,0.00,69.0,WeatherDisplay:10.37,2013-05-17 00:07:00,
2013-05-16 19:12:00,74.9,52.1,29.86,East,101,7.6,10.8,45,0.00,CLR,,0.00,72.0,WeatherDisplay:10.37,2013-05-17 00:12:00,
2013-05-16 19:17:00,74.6,51.2,29.87,SE,140,3.7,9.2,44,0.00,CLR,,0.00,67.0,WeatherDisplay:10.37,2013-05-17 00:17:00,
2013-05-16 19:22:00,74.2,50.9,29.87,ESE,108,6.0,16.0,44,0.00,CLR,,0.00,51.0,WeatherDisplay:10.37,2013-05-17 00:22:00,
2013-05-16 19:27:00,74.0,51.3,29.87,ESE,108,4.1,8.4,45,0.00,CLR,,0.00,42.0,WeatherDisplay:10.37,2013-05-17 00:27:00,
2013-05-16 19:32:00,73.9,51.2,29.88,East,100,1.6,4.8,45,0.00,CLR,,0.00,37.0,WeatherDisplay:10.37,2013-05-17 00:32:00,
2013-05-16 19:37:00,73.7,51.6,29.88,SSE,161,1.6,6.0,46,0.00,CLR,,0.00,32.0,WeatherDisplay:10.37,2013-05-17 00:37:00,
2013-05-16 19:42:00,73.2,51.2,29.88,East,93,3.0,11.0,46,0.00,CLR,,0.00,30.0,WeatherDisplay:10.37,2013-05-17 00:42:00,
2013-05-16 19:47:00,73.0,51.0,29.88,ESE,106,2.1,10.8,46,0.00,CLR,,0.00,26.0,WeatherDisplay:10.37,2013-05-17 00:47:00,
2013-05-16 19:52:00,72.8,51.4,29.88,East,97,5.0,13.0,47,0.00,CLR,,0.00,16.0,WeatherDisplay:10.37,2013-05-17 00:52:00,
2013-05-16 19:57:00,72.7,50.7,29.88,SE,126,0.1,2.3,46,0.00,CLR,,0.00,11.0,WeatherDisplay:10.37,2013-05-17 00:57:00,
2013-05-16 20:02:00,72.5,50.5,29.89,ENE,74,4.4,7.2,46,0.00,CLR,,0.00,7.0,WeatherDisplay:10.37,2013-05-17 01:02:00,
2013-05-16 20:07:00,72.3,50.4,29.89,SE,138,5.6,11.5,46,0.00,CLR,,0.00,5.0,WeatherDisplay:10.37,2013-05-17 01:07:00,
2013-05-16 20:12:00,72.1,50.2,29.89,East,94,4.3,8.4,46,0.00,CLR,,0.00,0.0,WeatherDisplay:10.37,2013-05-17 01:12:00,
2013-05-16 20:17:00,71.8,49.3,29.90,South,170,2.8,10.4,45,0.00,CLR,,0.00,0.0,WeatherDisplay:10.37,2013-05-17 01:17:00,
2013-05-16 20:22:00,71.6,49.1,29.90,South,180,0.7,4.6,45,0.00,CLR,,0.00,0.0,WeatherDisplay:10.37,2013-05-17 01:22:00,
2013-05-16 20:27:00,71.3,48.3,29.90,ENE,65,2.0,6.0,44,0.00,CLR,,0.00,0.0,WeatherDisplay:10.37,2013-05-17 01:27:00,
2013-05-16 20:32:00,71.1,47.5,29.91,ESE,103,4.1,8.4,43,0.00,CLR,,0.00,0.0,WeatherDisplay:10.37,2013-05-17 01:32:00,
2013-05-16 20:37:00,70.9,47.3,29.91,ESE,117,7.3,10.8,43,0.00,CLR,,0.00,0.0,WeatherDisplay:10.37,2013-05-17 01:37:00,
2013-05-16 20:42:00,70.6,47.0,29.91,ESE,104,3.7,10.8,43,0.00,CLR,,0.00,0.0,WeatherDisplay:10.37,2013-05-17 01:42:00,
2013-05-16 20:47:00,70.4,46.8,29.92,ESE,109,7.7,8.4,43,0.00,CLR,,0.00,0.0,WeatherDisplay:10.37,2013-05-17 01:47:00,
2013-05-16 20:52:00,70.3,47.3,29.92,SSW,211,2.4,7.2,44,0.00,CLR,,0.00,0.0,WeatherDisplay:10.37,2013-05-17 01:52:00,
2013-05-16 20:57:00,69.9,46.4,29.92,ESE,108,3.7,8.1,43,0.00,CLR,,0.00,0.0,WeatherDisplay:10.37,2013-05-17 01:57:00,
2013-05-16 21:02:00,69.8,46.9,29.93,East,90,2.6,6.0,44,0.00,CLR,,0.00,0.0,WeatherDisplay:10.37,2013-05-17 02:02:00,
2013-05-16 21:07:00,69.6,46.7,29.93,East,101,1.5,6.0,44,0.00,CLR,,0.00,0.0,WeatherDisplay:10.37,2013-05-17 02:07:00,
2013-05-16 21:12:00,69.3,46.4,29.93,ESE,111,2.6,6.9,44,0.00,CLR,,0.00,0.0,WeatherDisplay:10.37,2013-05-17 02:12:00,
2013-05-16 21:17:00,68.9,46.7,29.93,ESE,108,1.0,6.9,45,0.00,CLR,,0.00,0.0,WeatherDisplay:10.37,2013-05-17 02:17:00,
2013-05-16 21:22:00,68.8,46.6,29.93,ESE,111,2.4,9.6,45,0.00,CLR,,0.00,0.0,WeatherDisplay:10.37,2013-05-17 02:22:00,
2013-05-16 21:27:00,68.4,45.6,29.93,ESE,103,4.0,9.6,44,0.00,CLR,,0.00,0.0,WeatherDisplay:10.37,2013-05-17 02:27:00,
2013-05-16 21:32:00,68.1,45.9,29.93,South,182,2.1,8.4,45,0.00,CLR,,0.00,0.0,WeatherDisplay:10.37,2013-05-17 02:32:00,
2013-05-16 21:37:00,67.9,45.2,29.93,SE,133,1.6,6.0,44,0.00,CLR,,0.00,0.0,WeatherDisplay:10.37,2013-05-17 02:37:00,
2013-05-16 21:42:00,67.8,45.1,29.93,ESE,109,0.6,5.8,44,0.00,CLR,,0.00,0.0,WeatherDisplay:10.37,2013-05-17 02:42:00,
2013-05-16 21:47:00,67.6,44.9,29.95,ENE,59,2.0,9.6,44,0.00,CLR,,0.00,0.0,WeatherDisplay:10.37,2013-05-17 02:47:00,
2013-05-16 21:52:00,67.3,44.6,29.95,NE,44,1.5,7.2,44,0.00,CLR,,0.00,0.0,WeatherDisplay:10.37,2013-05-17 02:52:00,
2013-05-16 21:57:00,67.3,45.2,29.95,NE,44,0.1,1.2,45,0.00,CLR,,0.00,0.0,WeatherDisplay:10.37,2013-05-17 02:57:00,
2013-05-16 22:02:00,67.1,45.0,29.96,ENE,78,0.2,5.8,45,0.00,CLR,,0.00,0.0,WeatherDisplay:10.37,2013-05-17 03:02:00,
2013-05-16 22:07:00,66.8,43.6,29.96,East,90,5.2,7.2,43,0.00,CLR,,0.00,0.0,WeatherDisplay:10.37,2013-05-17 03:07:00,
2013-05-16 22:12:00,66.6,43.4,29.96,ESE,107,3.1,11.5,43,0.00,CLR,,0.00,0.0,WeatherDisplay:10.37,2013-05-17 03:12:00,
2013-05-16 22:17:00,66.4,42.6,29.95,SE,131,1.2,2.4,42,0.00,CLR,,0.00,0.0,WeatherDisplay:10.37,2013-05-17 03:17:00,
2013-05-16 22:22:00,66.3,42.5,29.95,SE,138,5.0,16.0,42,0.00,SCT,,0.00,0.0,WeatherDisplay:10.37,2013-05-17 03:22:00,
2013-05-16 22:27:00,66.1,42.9,29.95,SE,142,1.4,6.0,43,0.00,SCT,,0.00,0.0,WeatherDisplay:10.37,2013-05-17 03:27:00,
2013-05-16 22:32:00,66.0,42.9,29.96,East,92,2.8,8.1,43,0.00,SCT,,0.00,0.0,WeatherDisplay:10.37,2013-05-17 03:32:00,
2013-05-16 22:37:00,65.8,42.7,29.96,ESE,112,5.8,12.0,43,0.00,SCT,,0.00,0.0,WeatherDisplay:10.37,2013-05-17 03:37:00,
2013-05-16 22:42:00,65.6,42.5,29.96,SE,124,4.9,10.8,43,0.00,SCT,,0.00,0.0,WeatherDisplay:10.37,2013-05-17 03:42:00,
2013-05-16 22:47:00,65.5,43.0,29.95,East,95,0.0,2.3,44,0.00,SCT,,0.00,0.0,WeatherDisplay:10.37,2013-05-17 03:47:00,
2013-05-16 22:52:00,65.3,44.0,29.95,East,80,2.3,7.2,46,0.00,SCT,,0.00,0.0,WeatherDisplay:10.37,2013-05-17 03:52:00,
2013-05-16 22:57:00,64.7,44.5,29.95,East,97,2.5,9.6,48,0.00,SCT,,0.00,0.0,WeatherDisplay:10.37,2013-05-17 03:57:00,
2013-05-16 23:01:00,64.3,43.6,29.96,East,80,4.0,12.0,47,0.00,CLR,,0.00,0.0,WeatherDisplay:10.37,2013-05-17 04:01:00,
2013-05-16 23:02:00,64.2,43.5,29.96,East,88,8.7,13.2,47,0.00,CLR,,0.00,0.0,WeatherDisplay:10.37,2013-05-17 04:02:00,
2013-05-16 23:07:00,63.9,43.3,29.96,East,99,5.1,8.4,47,0.00,CLR,,0.00,0.0,WeatherDisplay:10.37,2013-05-17 04:07:00,
2013-05-16 23:12:00,63.7,43.6,29.96,East,82,1.1,8.4,48,0.00,CLR,,0.00,0.0,WeatherDisplay:10.37,2013-05-17 04:12:00,
2013-05-16 23:17:00,63.4,42.8,29.96,ESE,111,6.7,10.8,47,0.00,CLR,,0.00,0.0,WeatherDisplay:10.37,2013-05-17 04:17:00,
2013-05-16 23:22:00,63.4,42.8,29.96,East,101,2.6,6.0,47,0.00,CLR,,0.00,0.0,WeatherDisplay:10.37,2013-05-17 04:22:00,
2013-05-16 23:27:00,63.2,42.1,29.96,SE,145,4.4,8.4,46,0.00,CLR,,0.00,0.0,WeatherDisplay:10.37,2013-05-17 04:27:00,
2013-05-16 23:32:00,63.1,40.2,29.96,ESE,105,5.4,8.4,43,0.00,CLR,,0.00,0.0,WeatherDisplay:10.37,2013-05-17 04:32:00,
2013-05-16 23:37:00,62.9,40.6,29.96,East,98,0.0,4.6,44,0.00,CLR,,0.00,0.0,WeatherDisplay:10.37,2013-05-17 04:37:00,
2013-05-16 23:42:00,62.7,41.0,29.96,ENE,63,3.7,5.8,45,0.00,CLR,,0.00,0.0,WeatherDisplay:10.37,2013-05-17 04:42:00,
2013-05-16 23:47:00,62.6,40.9,29.97,East,80,0.0,0.0,45,0.00,CLR,,0.00,0.0,WeatherDisplay:10.37,2013-05-17 04:47:00,
2013-05-16 23:52:00,62.4,40.8,29.97,East,94,3.4,6.0,45,0.00,CLR,,0.00,0.0,WeatherDisplay:10.37,2013-05-17 04:52:00,
2013-05-16 23:57:00,62.1,40.5,29.97,ENE,57,4.4,8.4,45,0.00,CLR,,0.00,0.0,WeatherDisplay:10.37,2013-05-17 04:57:00,